Location: Unspecified
(0.0000°N, 0.0000°E)
Time: 04:51:54
(UTC+00:00)

S-56A Canister/Altair - All Passes

Search period start: 24 August 2017 00:00
Search period end: 03 September 2017 00:00
Orbit: 637 x 2497 km, 38.9° (Epoch: 23 August)

Date Brightness Start Highest point End Pass type
(mag) Time Alt. Az. Time Alt. Az. Time Alt. Az.
24 Aug - 01:29:27 10° S 01:37:57 18° SE 01:47:01 10° ESE visible
24 Aug - 03:31:37 10° SW 03:46:01 56° SE 03:59:44 10° ENE visible
24 Aug - 05:38:12 10° WSW 05:52:53 56° NW 06:05:02 10° NNE visible
24 Aug - 07:52:53 10° WNW 07:59:26 15° NW 08:05:11 10° N daylight
24 Aug - 16:26:06 10° NW 16:30:31 72° NE 16:35:31 10° SE daylight
24 Aug - 18:32:45 10° SW 18:34:54 12° SSW 18:37:18 10° S visible
25 Aug - 00:57:34 10° S 01:04:26 15° SSE 01:11:49 10° ESE visible
25 Aug - 02:58:44 10° SSW 03:12:33 50° SE 03:26:22 10° ENE visible
25 Aug - 05:04:36 10° WSW 05:19:33 64° NW 05:32:27 10° NE visible
25 Aug - 07:17:30 10° WNW 07:26:14 19° NW 07:33:45 10° N daylight
25 Aug - 15:53:54 10° NW 15:58:16 52° NE 16:02:53 10° ESE daylight
25 Aug - 17:59:39 10° WSW 18:02:18 14° SSW 18:05:17 10° S daylight
26 Aug - 00:26:23 10° SSE 00:30:57 12° SSE 00:35:48 10° SE visible
26 Aug - 02:25:59 10° SSW 02:39:06 44° SE 02:52:49 10° ENE visible
26 Aug - 04:31:09 10° SW 04:46:10 72° NW 04:59:44 10° NE visible
26 Aug - 06:42:36 10° W 06:52:59 23° NW 07:01:55 10° N daylight
26 Aug - 15:21:42 10° NNW 15:25:59 39° NE 15:30:15 10° ESE daylight
26 Aug - 17:26:43 10° WSW 17:29:47 17° SW 17:33:12 10° S daylight
27 Aug - 01:53:23 10° SSW 02:05:40 39° SE 02:19:04 10° ENE visible
27 Aug - 03:57:51 10° SW 04:12:45 80° NW 04:26:53 10° NE visible
27 Aug - 06:08:02 10° W 06:19:42 27° NW 06:29:50 10° NNE daylight
27 Aug - 14:49:31 10° NNW 14:53:41 29° NE 14:57:35 10° E daylight
27 Aug - 16:53:54 10° W 16:57:20 21° SW 17:01:06 10° SSE daylight
28 Aug - 01:20:55 10° SSW 01:32:17 33° SE 01:45:05 10° E visible
28 Aug - 03:24:42 10° SW 03:39:18 89° NW 03:53:54 10° NE visible
28 Aug - 05:33:46 10° W 05:46:21 32° NW 05:57:33 10° NNE visible
28 Aug - 14:17:20 10° NNW 14:21:18 23° NE 14:24:53 10° E daylight
28 Aug - 16:21:09 10° W 16:24:57 27° SW 16:28:58 10° SSE daylight
29 Aug - 00:48:37 10° SSW 00:58:57 29° SE 01:10:52 10° E visible
29 Aug - 02:51:42 10° SW 03:05:51 83° SE 03:20:46 10° NE visible
29 Aug - 04:59:44 10° WSW 05:12:58 37° NW 05:25:06 10° NNE visible
29 Aug - 13:45:10 10° N 13:48:52 19° NE 13:52:08 10° E daylight
29 Aug - 15:48:27 10° WNW 15:52:37 35° SW 15:56:49 10° SSE daylight
30 Aug - 00:16:30 10° S 00:25:39 24° SE 00:36:23 10° E visible
30 Aug - 02:18:50 10° SW 02:32:25 75° SE 02:47:29 10° NE visible
30 Aug - 04:25:58 10° WSW 04:39:32 42° NW 04:52:30 10° NNE visible
30 Aug - 06:43:49 10° NW 06:47:48 11° NNW 06:51:35 10° NNW daylight
30 Aug - 13:13:00 10° N 13:16:21 16° NNE 13:19:17 10° ENE daylight
30 Aug - 15:15:46 10° WNW 15:20:20 47° SW 15:24:39 10° SSE daylight
30 Aug - 23:44:37 10° S 23:52:25 20° SE 00:01:34 10° E visible
31 Aug - 01:46:07 10° SW 01:59:02 66° SE 02:14:04 10° ENE visible
31 Aug - 03:52:23 10° WSW 04:06:04 48° NW 04:19:46 10° NNE visible
31 Aug - 06:07:28 10° WNW 06:14:17 14° NNW 06:20:40 10° N daylight
31 Aug - 12:40:51 10° N 12:43:46 14° NNE 12:46:20 10° ENE daylight
31 Aug - 14:43:05 10° WNW 14:48:04 64° SW 14:52:29 10° SE daylight
31 Aug - 23:13:05 10° S 23:19:14 16° SE 23:26:18 10° ESE night (unlit)
01 Sep - 01:13:31 10° SSW 01:25:43 58° SE 01:40:28 10° ENE visible
01 Sep - 03:18:59 10° WSW 03:32:36 54° NW 03:46:54 10° NNE visible
01 Sep - 05:32:08 10° WNW 05:40:46 17° NW 05:48:53 10° N visible
01 Sep - 12:08:47 10° N 12:11:06 12° NNE 12:13:12 10° NE daylight
01 Sep - 14:10:24 10° NW 14:15:48 86° SW 14:20:16 10° SE daylight
01 Sep - 22:42:20 10° SSE 22:46:06 12° SE 22:50:13 10° ESE night (unlit)
02 Sep - 00:41:03 10° SSW 00:52:27 51° SE 01:06:43 10° ENE visible
02 Sep - 02:45:47 10° WSW 02:59:08 61° NW 03:13:55 10° NE visible
02 Sep - 04:57:19 10° WNW 05:07:12 20° NW 05:16:43 10° N visible
02 Sep - 11:36:54 10° NNE 11:38:22 11° NNE 11:39:45 10° NE daylight
02 Sep - 13:37:42 10° NW 13:43:30 73° NE 13:48:02 10° SE daylight
